GCOM-W1 (SHIZUKU)

Last updated on Thu Nov 21 2024 00:03:26 GMT+0000 (Coordinated Universal Time)

1 38337U 12025A 24325.31782632 .00001372 00000+0 31438-3 0 9996 2 38337 98.2192 263.0828 0001849 55.8543 105.3054 14.57121711665463
UTC large
Height (km)
Speed (km/s)
/
Latitude / Longitude
Inclination (degrees)
Orbital Period (minutes)
Azimuth
Elevation
Range (km)
Doppler Factor

Next 0 passes for location: London (51.5072 / 0.1276)

Sorry there are no passes over London.